Temperature
6 6 6 6 6 5 5 5 4 4 5 5 5 5 5 5 5 5 5 5 6 6 6 6 6 6 6 5 5 5 5 6 6 6 5 5 6 6
6 6 6 6 5 5 5 5 4 4 4 4 4 5 5 5 5 5 5 5 5 5 5 5 5 5 5 5 5 5 5 5 5 5 5 5 5 5
5 5 5 5 5 5 5 4 4 4 3 4 4 4 4 4 4 4 4 4 4 4 4 4 4 4 4 4 4 4 4 4 4 4 4 4 4 4
5 5 5 5 4 4 4 4 4 4 3 3 3 3 3 3 4 4 4 4 4 4 4 4 4 4 4 4 4 3 4 3 3 3 3 3 3 3
5 4 4 4 4 4 4 4 3 3 3 3 3 3 3 3 3 3 3 3 3 3 3 3 3 3 3 3 3 3 3 3 3 3 3 3 3 3
4 4 4 4 4 4 3 3 3 3 3 2 2 2 2 2 2 2 2 2 2 2 2 2 2 2 2 2 2 2 2 2 2 2 2 2 2 2
4 4 4 3 3 3 3 3 2 2 2 2 2 2 2 2 2 2 2 2 2 2 2 2 2 2 2 2 2 2 2 2 2 1 1 1 1 1
3 3 3 3 3 3 3 2 2 2 2 2 1 1 1 1 1 1 1 1 1 1 1 1 1 1 1 1 1 1 1 1 1 1 1 1 1 1
3 3 3 3 3 2 2 2 2 2 1 1 1 1 1 1 1 1 1 0 0 1 1 1 1 1 1 1 1 1 0 0 0 0 0 0 0 0
2 2 2 2 2 2 1 1 1 1 1 1 1 1 1 0 0 0 0 0 0 0 0 0 0 0 0 0 0 0 -0 -0 -0 -0 -0 -0 -0 -0
2 2 2 2 2 1 1 1 1 1 1 1 0 0 0 0 -0 -0 -0 -1 -1 -0 -0 -1 -0 -0 -0 -0 -0 -0 -1 -1 -1 -1 -1 -1 -1 -1
1 1 1 1 1 1 0 0 1 1 0 0 0 0 0 -0 -0 -1 -1 -1 -1 -1 -1 -1 -1 -1 -1 -1 -1 -1 -1 -1 -1 -1 -1 -1 -1 -1
1 1 1 1 1 0 0 0 0 -0 -0 -0 -0 -0 -0 -0 -1 -1 -1 -1 -2 -2 -2 -2 -2 -2 -3 -2 -2 -1 -2 -2 -2 -2 -2 -2 -2 -2
1 1 1 1 0 0 0 0 -0 -1 -1 -1 -1 -1 -1 -1 -1 -1 -2 -2 -2 -2 -2 -3 -3 -3 -3 -3 -3 -2 -2 -3 -3 -3 -3 -3 -3 -3
0 0 0 0 0 -0 -0 -0 -1 -1 -1 -1 -1 -1 -1 -2 -2 -2 -2 -2 -2 -2 -3 -3 -3 -3 -3 -4 -4 -3 -3 -3 -3 -3 -3 -3 -3 -3
-0 -0 -0 -0 -0 -0 -0 -1 -1 -1 -2 -2 -2 -2 -2 -2 -2 -2 -3 -3 -3 -3 -3 -3 -3 -4 -4 -4 -4 -4 -4 -4 -4 -4 -4 -4 -4 -4
-1 -1 -1 -1 -1 -1 -1 -1 -1 -2 -2 -2 -2 -2 -3 -3 -3 -3 -3 -3 -3 -3 -3 -4 -4 -4 -4 -4 -4 -4 -4 -4 -4 -4 -4 -4 -4 -4
-1 -1 -1 -1 -1 -1 -1 -1 -2 -2 -2 -3 -3 -3 -3 -3 -3 -4 -4 -4 -4 -4 -4 -4 -4 -5 -4 -4 -4 -4 -4 -4 -5 -5 -5 -5 -4 -4
-2 -2 -1 -1 -1 -2 -2 -2 -2 -2 -3 -3 -3 -3 -3 -4 -4 -4 -4 -4 -5 -5 -5 -5 -5 -5 -5 -6 -5 -5 -5 -5 -5 -5 -5 -5 -5 -5
-2 -2 -2 -2 -2 -2 -2 -2 -2 -3 -3 -3 -3 -4 -4 -4 -4 -4 -5 -5 -5 -5 -5 -5 -5 -5 -6 -6 -6 -5 -5 -5 -5 -6 -6 -6 -5 -5
-2 -2 -2 -2 -2 -2 -2 -3 -3 -3 -3 -4 -4 -4 -4 -4 -5 -5 -5 -5 -5 -6 -6 -6 -6 -6 -6 -6 -6 -6 -6 -6 -6 -6 -6 -6 -6 -6
-2 -2 -2 -2 -2 -3 -3 -3 -3 -4 -4 -4 -4 -4 -5 -5 -5 -5 -5 -5 -6 -6 -6 -6 -6 -6 -6 -6 -7 -6 -6 -6 -6 -6 -6 -7 -7 -7
-3 -3 -3 -3 -3 -3 -3 -3 -4 -4 -4 -4 -4 -5 -5 -5 -5 -5 -6 -6 -6 -6 -6 -6 -7 -7 -7 -7 -7 -7 -7 -7 -7 -7 -6 -6 -7 -7
Wind_Speed
4 5 4 4 4 5 5 5 5 7 7 5 4 4 5 6 6 7 7 7 9 9 10 9 9 9 9 9 9 9 9 9 10 11 11 11 10 11
4 5 5 5 4 4 5 5 6 6 7 5 6 6 6 6 7 8 8 9 9 9 9 9 9 9 9 8 8 8 9 9 10 10 11 11 11 11
5 6 6 6 5 5 4 5 5 6 8 7 6 6 7 8 7 7 8 8 7 8 9 10 9 9 9 8 8 8 8 9 9 10 10 11 11 12
7 6 7 5 6 5 5 6 6 6 7 9 7 6 7 8 8 8 7 7 8 8 9 9 9 9 8 8 8 8 8 8 9 10 10 11 12 12
7 7 7 7 7 6 6 6 6 6 6 8 8 6 6 6 7 7 8 7 7 7 8 8 8 9 9 8 8 8 7 8 9 10 10 11 11 12
8 8 8 8 8 8 7 7 7 7 7 7 7 7 6 6 6 6 6 6 6 6 7 7 8 9 9 8 8 8 7 8 9 10 11 11 11 11
9 9 9 9 9 9 7 7 7 7 6 7 7 7 6 5 5 5 7 7 7 5 6 6 6 6 6 7 8 8 8 9 9 10 11 11 11 12
10 10 9 9 10 11 12 11 10 9 8 7 7 8 8 7 6 6 6 6 5 3 5 6 5 5 5 5 6 8 9 9 9 10 10 11 11 12
10 9 8 8 9 9 10 11 11 13 12 10 10 10 9 7 7 7 7 7 7 5 5 6 5 5 4 5 7 8 9 9 10 10 10 11 12 12
11 10 10 10 8 8 8 9 9 10 10 9 10 9 8 7 7 7 8 8 7 5 4 5 5 5 5 5 5 6 8 9 10 11 11 12 12 13
10 10 10 10 10 10 9 9 9 8 7 9 10 9 9 8 7 5 5 5 6 4 3 4 4 5 5 5 4 6 8 9 10 11 11 11 11 12
9 9 11 12 11 11 10 9 10 9 7 6 7 8 8 7 8 7 6 6 5 4 2 3 3 3 4 3 4 5 6 7 9 10 10 10 11 9
8 8 8 11 13 13 12 10 11 9 7 6 6 6 5 5 5 6 6 6 6 5 2 2 3 3 4 4 3 4 4 5 6 7 9 9 10 9
9 8 8 10 12 12 11 11 11 8 6 6 6 6 5 5 5 5 6 6 6 7 5 4 3 4 4 4 4 4 4 5 5 5 6 8 9 10
9 10 11 11 11 10 11 11 9 7 6 6 7 6 5 5 4 4 4 4 5 6 6 6 5 5 5 5 5 5 4 5 5 5 6 6 7 7
8 9 11 10 9 9 8 7 7 7 7 7 6 5 4 4 4 4 4 4 4 4 4 5 6 6 6 7 7 7 6 4 5 6 7 7 7 7
7 6 6 6 6 6 6 6 6 6 6 6 5 5 4 4 4 3 4 4 4 4 3 3 4 6 6 6 6 7 7 6 6 6 6 7 8 7
8 7 7 7 7 7 7 6 6 6 6 5 5 5 5 5 4 3 3 4 5 4 4 3 2 3 3 4 7 7 6 6 6 6 6 7 8 8
9 8 8 8 7 7 7 7 6 6 5 5 6 5 5 5 4 4 4 4 4 4 4 3 3 3 4 4 3 6 6 6 6 6 6 7 8 9
8 8 8 8 7 7 7 7 6 5 5 5 6 5 5 5 5 5 4 5 4 4 4 3 3 4 4 4 3 3 6 6 6 6 7 7 8 10
8 8 8 7 7 7 7 6 6 6 6 5 5 5 5 5 5 5 5 6 5 4 4 4 3 4 3 2 3 4 4 5 6 6 6 6 7 6
8 8 7 7 7 7 6 6 6 6 6 6 6 5 5 5 6 6 5 5 5 4 5 3 2 2 2 3 5 5 5 5 6 8 9 9 6 4
8 8 7 7 7 6 6 7 7 6 6 6 6 5 5 5 5 5 5 5 4 4 3 3 2 2 3 4 4 5 6 7 5 5 5 6 9 12
Wind_Direction
273 270 269 269 269 268 265 265 275 286 286 284 287 290 302 302 306 299 298 308 307 307 305 306 308 309 308 307 309 311 312 312 312 313 309 308 308 308
274 272 271 271 268 265 262 260 258 268 279 287 287 297 300 295 300 297 298 301 296 298 298 297 299 300 303 305 306 308 310 309 308 308 308 309 309 308
267 268 269 272 271 268 266 264 261 261 272 282 284 293 293 293 295 295 295 293 292 295 296 292 290 293 297 299 301 303 303 305 307 308 306 306 307 306
263 264 267 268 267 268 266 265 265 263 271 280 284 286 286 292 294 294 294 290 289 292 290 286 284 288 290 291 295 298 303 306 307 307 306 307 306 304
262 261 264 264 264 264 265 266 266 269 267 274 282 285 285 288 293 291 289 288 289 290 285 280 276 281 280 282 289 293 297 299 302 304 304 303 303 304
258 258 259 258 261 264 264 265 267 268 266 269 276 282 284 287 286 288 290 289 289 290 282 281 275 272 271 275 278 283 286 291 295 299 301 301 302 302
257 256 256 256 260 260 262 264 263 263 265 268 273 278 278 282 280 281 287 292 285 280 287 284 279 272 271 270 268 273 277 284 289 294 298 298 299 300
260 259 257 252 252 254 257 259 258 259 261 264 268 270 274 277 279 278 286 290 284 283 293 288 282 276 277 279 281 278 276 280 285 291 295 295 296 298
259 260 258 254 253 257 256 254 254 253 256 261 266 267 273 274 275 275 274 276 279 293 296 283 279 278 281 282 286 276 278 281 285 289 292 294 296 298
257 257 257 258 252 253 260 261 261 257 251 252 259 267 271 275 268 271 277 278 278 275 272 274 285 283 285 276 273 282 286 287 289 290 292 295 297 299
257 255 254 256 251 247 252 258 263 263 254 249 257 264 270 270 269 268 267 270 274 264 249 268 285 292 287 272 264 277 287 291 293 294 295 298 302 303
261 257 249 250 253 246 248 253 257 260 258 259 256 257 260 259 256 254 258 260 267 267 237 257 279 297 291 272 274 282 283 286 295 300 302 303 306 305
260 260 255 247 251 251 252 253 255 260 260 258 259 258 257 256 255 253 253 250 253 255 247 245 266 272 270 284 284 279 281 288 294 295 296 300 303 300
258 261 261 254 255 257 256 253 254 253 253 252 254 256 255 255 255 256 256 257 256 258 259 244 248 257 265 273 279 284 286 290 292 293 296 298 296 292
259 262 265 261 259 258 254 250 247 246 242 246 250 254 256 255 253 259 260 260 262 262 256 245 244 250 252 259 271 281 291 291 286 288 294 295 293 293
262 261 258 256 252 252 254 248 244 242 242 246 251 256 251 240 243 249 253 253 259 260 242 239 244 245 252 258 261 270 274 276 284 291 295 293 289 285
264 265 258 256 254 251 250 248 244 240 243 243 245 248 243 241 244 240 244 244 248 259 264 256 256 255 254 260 261 263 268 273 279 289 294 294 291 285
256 252 250 248 248 249 247 247 244 242 241 237 239 241 238 238 241 235 233 242 252 258 262 267 275 278 262 251 237 258 269 275 284 287 287 290 292 291
249 246 245 246 247 246 245 243 243 239 234 233 237 238 235 234 233 234 234 241 251 257 261 256 252 257 273 287 258 227 259 281 289 288 282 281 285 291
243 244 245 244 243 243 242 241 238 234 230 233 234 232 229 229 229 231 233 237 245 252 256 251 247 247 255 282 289 278 260 268 279 285 291 292 287 286
246 246 246 245 243 241 239 236 233 232 229 227 229 227 226 226 230 230 232 232 236 243 250 256 257 261 271 273 273 279 281 266 268 277 289 296 298 299
249 248 247 245 242 240 237 231 230 229 224 226 226 224 224 225 227 226 229 230 232 240 252 261 254 243 243 249 269 288 299 304 290 276 269 265 279 293
249 249 248 244 239 237 234 228 225 227 225 222 221 223 223 223 223 224 225 226 228 232 241 248 246 247 254 260 272 287 298 308 311 312 300 286 275 275
Height
1492 1491 1490 1489 1488 1487 1486 1485 1484 1481 1478 1476 1475 1473 1471 1469 1467 1465 1463 1461 1460 1458 1456 1454 1453 1451 1450 1448 1447 1446 1444 1444 1443 1441 1440 1439 1438 1437
1488 1487 1486 1485 1484 1483 1482 1481 1479 1478 1475 1472 1471 1469 1467 1464 1463 1460 1458 1457 1455 1453 1451 1449 1448 1446 1445 1443 1442 1440 1439 1438 1437 1436 1435 1434 1433 1432
1485 1484 1482 1481 1480 1478 1477 1476 1475 1473 1471 1468 1466 1464 1462 1460 1458 1456 1454 1452 1450 1448 1447 1445 1443 1441 1440 1438 1437 1436 1434 1433 1432 1431 1430 1429 1427 1426
1481 1479 1478 1477 1475 1474 1473 1471 1470 1469 1467 1464 1461 1460 1458 1456 1453 1451 1449 1447 1445 1443 1442 1440 1438 1437 1435 1433 1432 1431 1429 1428 1427 1426 1425 1423 1422 1421
1476 1475 1473 1472 1471 1470 1468 1467 1465 1464 1462 1460 1457 1455 1453 1451 1449 1447 1445 1443 1441 1439 1437 1435 1433 1432 1430 1429 1427 1426 1424 1423 1422 1421 1419 1418 1417 1415
1471 1470 1469 1467 1466 1465 1463 1462 1460 1459 1457 1455 1452 1450 1448 1447 1445 1442 1440 1438 1436 1434 1432 1430 1428 1427 1425 1424 1422 1421 1419 1418 1417 1415 1414 1413 1411 1410
1466 1465 1463 1462 1461 1459 1458 1457 1455 1454 1452 1450 1448 1446 1444 1442 1440 1438 1436 1434 1431 1430 1427 1426 1424 1422 1420 1419 1417 1416 1415 1413 1412 1410 1409 1407 1406 1405
1460 1458 1457 1456 1455 1454 1453 1451 1450 1449 1447 1445 1443 1441 1439 1438 1436 1434 1432 1430 1427 1426 1423 1421 1420 1417 1415 1414 1413 1411 1410 1408 1406 1405 1403 1402 1401 1400
1454 1452 1451 1450 1449 1448 1446 1445 1444 1442 1441 1440 1438 1436 1435 1433 1431 1429 1427 1425 1423 1421 1419 1416 1415 1413 1411 1409 1408 1406 1405 1403 1401 1400 1398 1397 1396 1395
1447 1446 1445 1444 1443 1442 1440 1439 1437 1436 1435 1434 1432 1431 1430 1428 1426 1425 1422 1420 1418 1416 1414 1412 1410 1408 1406 1404 1403 1401 1399 1398 1396 1395 1393 1392 1391 1389
1441 1440 1439 1438 1437 1436 1434 1432 1431 1430 1429 1428 1426 1425 1423 1422 1421 1419 1417 1415 1412 1411 1409 1408 1405 1403 1401 1399 1398 1396 1395 1393 1391 1390 1388 1387 1386 1384
1435 1434 1432 1431 1431 1429 1428 1426 1424 1423 1423 1421 1420 1419 1417 1416 1415 1414 1412 1411 1408 1406 1404 1403 1401 1399 1396 1394 1393 1392 1390 1388 1387 1385 1384 1382 1381 1379
1428 1427 1426 1425 1424 1423 1422 1420 1419 1418 1416 1415 1413 1412 1411 1410 1409 1409 1407 1406 1404 1402 1401 1399 1397 1395 1393 1390 1388 1387 1385 1384 1382 1380 1379 1378 1376 1374
1422 1421 1420 1419 1418 1416 1415 1414 1413 1412 1410 1409 1408 1407 1406 1405 1404 1403 1402 1401 1399 1398 1396 1395 1393 1391 1389 1386 1384 1383 1382 1380 1378 1376 1375 1373 1372 1370
1415 1414 1413 1412 1411 1409 1408 1407 1406 1405 1404 1403 1402 1401 1401 1400 1399 1398 1397 1395 1394 1393 1391 1390 1388 1387 1385 1383 1381 1379 1377 1375 1374 1372 1370 1368 1366 1365
1409 1408 1407 1406 1404 1403 1402 1401 1400 1399 1399 1398 1397 1396 1395 1394 1393 1392 1391 1390 1389 1387 1386 1385 1384 1382 1380 1379 1377 1375 1373 1371 1370 1368 1366 1364 1362 1360
1402 1401 1400 1399 1398 1397 1396 1395 1394 1393 1393 1392 1391 1391 1390 1389 1388 1387 1386 1385 1384 1383 1382 1381 1379 1378 1376 1375 1373 1371 1370 1368 1366 1364 1362 1359 1357 1356
1396 1394 1393 1393 1392 1390 1389 1388 1388 1387 1387 1387 1386 1385 1385 1384 1383 1382 1382 1381 1379 1378 1378 1377 1375 1374 1372 1370 1370 1367 1366 1364 1362 1360 1358 1355 1352 1351
1390 1388 1387 1386 1385 1384 1383 1383 1382 1382 1382 1381 1381 1380 1380 1379 1378 1378 1377 1376 1375 1375 1374 1373 1372 1370 1368 1366 1365 1364 1363 1360 1358 1356 1354 1352 1348 1346
1383 1382 1381 1380 1379 1378 1378 1377 1377 1376 1376 1376 1375 1375 1374 1374 1374 1373 1373 1372 1371 1371 1370 1369 1368 1367 1365 1364 1362 1360 1360 1357 1355 1352 1350 1347 1344 1342
1376 1375 1374 1374 1373 1372 1372 1371 1371 1371 1370 1370 1370 1370 1369 1369 1369 1369 1369 1368 1368 1367 1366 1365 1364 1364 1362 1361 1359 1356 1356 1354 1352 1349 1346 1343 1340 1337
1369 1369 1368 1367 1367 1366 1366 1365 1365 1365 1365 1365 1365 1365 1365 1365 1365 1365 1364 1364 1363 1363 1362 1362 1361 1360 1359 1358 1355 1354 1352 1351 1349 1346 1344 1342 1339 1335
1363 1362 1361 1361 1360 1360 1360 1359 1359 1359 1359 1360 1360 1360 1360 1360 1360 1360 1360 1360 1360 1359 1359 1358 1357 1357 1356 1355 1353 1351 1349 1347 1345 1343 1341 1339 1337 1334